STARLINK-11234 [DTC] (60400 NORAD) Tracking and Keplerian Element Data

This shows tracking and keplerian element data for the satellite.

Feedback or suggestion? Click here.




ElementValue
Catalog60400
NameSTARLINK-11234 [DTC]
Epoch Orbit1113
Epoch Day286.75594451
Epoch Year2024
RAAN94.6364
Inclination53.1571
Eccentricity0.0001028
Argument of Perigee83.2482
Mean Anonmoly276.8653
Mean Motion15.69775405
Decay Rate6.687E-05
L11 60400U 24141C 24286.75594451 .00006687 00000+0 59850-4 0 9991
L22 60400 53.1571 94.6364 0001028 83.2482 276.8653 15.69775405 11136



Live tracking and technical data element details for STARLINK-11234 [DTC] (NORAD 60400). STARLINK-11234 [DTC] can be tracked NOW for your location showing map with azimuth and elevation plus other details from your city location.







IsCatalogInMostPopularTable: catalog: 60400, numindb: 7
Update: records affected: 1



GetName: 60400 STARLINK-11234 [DTC]

Hit Count: updated at: Fri, 06 Dec 2024 11:46:22 GMT